QPF
0.01 0.01 0.01 0.01 0.01 0.01 0.02 0.01 0.01 0.00 0.00 0.00 0.00 0.00 0.01 0.02 0.03 0.03 0.03 0.03 0.04 0.05 0.06 0.05 0.03 0.04 0.04 0.03 0.03 0.05 0.03 0.02 0.02 0.03 0.04 0.04 0.06 0.07 0.06 0.06 0.08 0.09 0.10
0.00 0.00 0.00 0.00 0.00 0.01 0.02 0.01 0.01 0.01 0.01 0.01 0.01 0.00 0.01 0.01 0.02 0.04 0.04 0.02 0.02 0.02 0.03 0.04 0.03 0.03 0.03 0.02 0.02 0.03 0.03 0.02 0.02 0.03 0.04 0.05 0.06 0.11 0.08 0.06 0.06 0.07 0.10
0.00 0.00 0.00 0.00 0.00 0.00 0.01 0.00 0.00 0.01 0.02 0.02 0.03 0.03 0.02 0.02 0.02 0.03 0.04 0.03 0.03 0.02 0.02 0.02 0.02 0.02 0.02 0.02 0.03 0.03 0.03 0.03 0.02 0.03 0.04 0.05 0.06 0.12 0.14 0.08 0.06 0.07 0.11
0.00 0.00 0.00 0.00 0.00 0.00 0.00 0.00 0.00 0.02 0.03 0.04 0.04 0.04 0.03 0.03 0.03 0.02 0.03 0.04 0.04 0.04 0.02 0.02 0.01 0.01 0.02 0.02 0.07 0.05 0.04 0.05 0.05 0.03 0.03 0.05 0.06 0.07 0.10 0.10 0.08 0.07 0.08
0.00 0.00 0.00 0.00 0.00 0.01 0.01 0.01 0.01 0.01 0.01 0.02 0.03 0.03 0.03 0.03 0.03 0.02 0.02 0.03 0.02 0.03 0.02 0.02 0.02 0.01 0.02 0.03 0.09 0.08 0.03 0.05 0.09 0.06 0.05 0.04 0.04 0.06 0.07 0.08 0.09 0.07 0.06
0.00 0.00 0.00 0.00 0.00 0.01 0.02 0.01 0.01 0.01 0.01 0.02 0.02 0.02 0.01 0.02 0.02 0.03 0.02 0.02 0.02 0.01 0.02 0.02 0.03 0.01 0.01 0.01 0.05 0.05 0.04 0.04 0.09 0.12 0.08 0.06 0.05 0.06 0.11 0.12 0.12 0.08 0.07
0.00 0.00 0.00 0.00 0.00 0.01 0.01 0.01 0.01 0.01 0.01 0.02 0.03 0.02 0.01 0.01 0.02 0.02 0.02 0.02 0.01 0.00 0.00 0.01 0.02 0.02 0.02 0.01 0.02 0.03 0.07 0.07 0.08 0.11 0.09 0.07 0.06 0.07 0.11 0.14 0.13 0.10 0.07
0.00 0.00 0.00 0.00 0.00 0.01 0.01 0.01 0.01 0.02 0.02 0.02 0.04 0.04 0.03 0.02 0.02 0.01 0.02 0.01 0.01 0.01 0.00 0.00 0.01 0.01 0.01 0.01 0.01 0.02 0.08 0.10 0.07 0.07 0.07 0.07 0.06 0.06 0.08 0.10 0.10 0.09 0.09
0.00 0.00 0.00 0.00 0.00 0.00 0.01 0.01 0.01 0.02 0.02 0.02 0.02 0.04 0.04 0.03 0.02 0.02 0.02 0.02 0.02 0.01 0.01 0.01 0.00 0.00 0.01 0.01 0.01 0.01 0.01 0.03 0.05 0.05 0.05 0.05 0.05 0.05 0.06 0.07 0.07 0.07 0.07
0.00 0.00 0.00 0.00 0.00 0.01 0.01 0.01 0.00 0.01 0.02 0.02 0.01 0.02 0.02 0.02 0.03 0.03 0.02 0.02 0.02 0.02 0.01 0.01 0.00 0.00 0.01 0.02 0.02 0.01 0.00 0.01 0.01 0.03 0.03 0.03 0.03 0.04 0.05 0.07 0.07 0.07 0.08
0.00 0.00 0.00 0.00 0.00 0.00 0.01 0.01 0.01 0.01 0.01 0.01 0.01 0.01 0.01 0.02 0.03 0.04 0.03 0.02 0.01 0.01 0.01 0.01 0.01 0.01 0.02 0.04 0.04 0.01 0.01 0.00 0.01 0.01 0.02 0.02 0.03 0.04 0.06 0.06 0.05 0.05 0.07
0.00 0.00 0.00 0.00 0.00 0.00 0.00 0.00 0.00 0.00 0.00 0.01 0.01 0.01 0.01 0.02 0.02 0.03 0.04 0.03 0.02 0.01 0.01 0.01 0.01 0.01 0.03 0.05 0.05 0.05 0.03 0.01 0.01 0.01 0.02 0.02 0.03 0.04 0.05 0.06 0.05 0.05 0.04
0.00 0.00 0.00 0.00 0.00 0.00 0.00 0.00 0.00 0.00 0.00 0.00 0.00 0.01 0.01 0.01 0.01 0.02 0.02 0.02 0.02 0.02 0.02 0.02 0.01 0.01 0.04 0.06 0.09 0.10 0.09 0.05 0.02 0.02 0.03 0.05 0.06 0.09 0.07 0.05 0.04 0.03 0.03
0.00 0.00 0.00 0.00 0.00 0.00 0.00 0.00 0.00 0.00 0.00 0.00 0.00 0.00 0.01 0.01 0.01 0.02 0.02 0.02 0.02 0.02 0.03 0.03 0.02 0.02 0.03 0.06 0.08 0.12 0.12 0.06 0.03 0.03 0.02 0.06 0.11 0.09 0.06 0.05 0.04 0.03 0.03
0.00 0.00 0.00 0.00 0.00 0.00 0.00 0.00 0.00 0.00 0.00 0.00 0.00 0.00 0.00 0.00 0.01 0.01 0.01 0.01 0.02 0.02 0.02 0.03 0.02 0.01 0.02 0.03 0.06 0.10 0.10 0.05 0.03 0.03 0.02 0.03 0.07 0.13 0.09 0.04 0.03 0.02 0.02
0.00 0.00 0.00 0.00 0.00 0.00 0.00 0.00 0.00 0.00 0.00 0.00 0.00 0.00 0.00 0.00 0.00 0.00 0.01 0.01 0.01 0.01 0.01 0.02 0.02 0.01 0.01 0.01 0.02 0.04 0.05 0.04 0.03 0.03 0.03 0.03 0.03 0.04 0.05 0.04 0.02 0.01 0.01
0.00 0.00 0.00 0.00 0.00 0.00 0.00 0.00 0.00 0.00 0.00 0.00 0.00 0.00 0.00 0.00 0.00 0.00 0.01 0.01 0.01 0.01 0.01 0.01 0.01 0.01 0.01 0.01 0.01 0.01 0.02 0.02 0.02 0.01 0.01 0.01 0.01 0.02 0.02 0.02 0.01 0.01 0.00
0.00 0.00 0.00 0.00 0.00 0.00 0.00 0.00 0.00 0.00 0.00 0.00 0.00 0.00 0.00 0.00 0.00 0.00 0.00 0.00 0.01 0.01 0.01 0.00 0.00 0.00 0.00 0.00 0.01 0.02 0.02 0.02 0.02 0.01 0.00 0.00 0.00 0.00 0.00 0.00 0.00 0.01 0.00
0.00 0.00 0.00 0.00 0.00 0.00 0.00 0.00 0.00 0.00 0.00 0.00 0.00 0.00 0.00 0.00 0.00 0.00 0.00 0.00 0.00 0.00 0.01 0.00 0.00 0.00 0.00 0.00 0.01 0.02 0.02 0.03 0.02 0.01 0.01 0.01 0.00 0.00 0.00 0.00 0.00 0.01 0.01
0.00 0.00 0.00 0.00 0.00 0.00 0.00 0.00 0.00 0.00 0.00 0.00 0.00 0.00 0.00 0.00 0.00 0.00 0.00 0.00 0.00 0.01 0.02 0.02 0.01 0.01 0.01 0.00 0.01 0.02 0.03 0.03 0.02 0.01 0.01 0.01 0.00 0.00 0.00 0.00 0.00 0.01 0.03
0.00 0.00 0.00 0.00 0.00 0.00 0.00 0.00 0.00 0.00 0.00 0.00 0.00 0.00 0.00 0.00 0.00 0.00 0.00 0.00 0.00 0.01 0.02 0.03 0.03 0.02 0.01 0.01 0.01 0.02 0.03 0.01 0.01 0.01 0.01 0.01 0.02 0.02 0.01 0.00 0.00 0.01 0.03
0.01 0.00 0.00 0.00 0.00 0.00 0.00 0.00 0.00 0.00 0.00 0.00 0.00 0.00 0.00 0.00 0.00 0.00 0.00 0.00 0.00 0.00 0.01 0.02 0.02 0.02 0.01 0.02 0.02 0.02 0.02 0.01 0.01 0.01 0.01 0.01 0.01 0.02 0.01 0.01 0.01 0.00 0.01
0.02 0.01 0.01 0.00 0.00 0.00 0.00 0.00 0.00 0.00 0.00 0.00 0.00 0.00 0.00 0.00 0.00 0.00 0.00 0.00 0.00 0.00 0.00 0.00 0.01 0.01 0.01 0.01 0.01 0.01 0.01 0.01 0.02 0.01 0.01 0.01 0.01 0.01 0.00 0.00 0.00 0.00 0.00
0.02 0.02 0.01 0.01 0.00 0.00 0.00 0.00 0.00 0.00 0.00 0.00 0.00 0.00 0.00 0.00 0.00 0.00 0.00 0.00 0.00 0.00 0.00 0.00 0.00 0.00 0.00 0.00 0.00 0.01 0.01 0.00 0.00 0.01 0.02 0.02 0.01 0.01 0.01 0.00 0.00 0.00 0.00
0.01 0.01 0.01 0.01 0.01 0.00 0.00 0.00 0.00 0.00 0.00 0.00 0.00 0.00 0.00 0.00 0.00 0.00 0.00 0.00 0.00 0.00 0.00 0.00 0.00 0.00 0.00 0.00 0.00 0.00 0.01 0.01 0.01 0.01 0.01 0.01 0.01 0.00 0.01 0.01 0.01 0.00 0.00
0.00 0.01 0.01 0.01 0.01 0.00 0.00 0.01 0.01 0.00 0.00 0.00 0.00 0.00 0.00 0.00 0.00 0.00 0.00 0.00 0.00 0.00 0.00 0.00 0.00 0.00 0.00 0.00 0.00 0.00 0.01 0.01 0.01 0.01 0.00 0.00 0.00 0.01 0.01 0.00 0.01 0.01 0.01
MSLP
1016.11 1016.08 1016.02 1015.96 1015.95 1015.99 1016.09 1016.22 1016.36 1016.45 1016.49 1016.47 1016.41 1016.35 1016.34 1016.40 1016.56 1016.80 1017.10 1017.39 1017.65 1017.83 1017.91 1017.92 1017.85 1017.77 1017.70 1017.67 1017.69 1017.75 1017.84 1017.94 1018.03 1018.11 1018.18 1018.26 1018.37 1018.51 1018.69 1018.91 1019.14 1019.38 1019.61
1016.20 1016.16 1016.11 1016.09 1016.11 1016.20 1016.34 1016.52 1016.68 1016.81 1016.88 1016.90 1016.88 1016.85 1016.85 1016.91 1017.04 1017.22 1017.44 1017.65 1017.83 1017.93 1017.97 1017.95 1017.88 1017.81 1017.76 1017.74 1017.75 1017.79 1017.83 1017.87 1017.90 1017.92 1017.96 1018.01 1018.11 1018.26 1018.46 1018.69 1018.93 1019.17 1019.40
1016.35 1016.28 1016.24 1016.24 1016.31 1016.45 1016.63 1016.84 1017.05 1017.22 1017.33 1017.39 1017.41 1017.42 1017.44 1017.49 1017.58 1017.70 1017.82 1017.93 1018.00 1018.02 1018.00 1017.95 1017.89 1017.85 1017.82 1017.83 1017.85 1017.87 1017.88 1017.86 1017.82 1017.78 1017.75 1017.76 1017.84 1017.98 1018.18 1018.43 1018.69 1018.95 1019.19
1016.56 1016.47 1016.43 1016.45 1016.55 1016.72 1016.94 1017.18 1017.41 1017.61 1017.76 1017.86 1017.93 1017.98 1018.02 1018.07 1018.12 1018.17 1018.21 1018.21 1018.17 1018.11 1018.03 1017.95 1017.90 1017.89 1017.91 1017.95 1017.99 1018.01 1017.97 1017.89 1017.77 1017.63 1017.52 1017.47 1017.50 1017.63 1017.84 1018.10 1018.40 1018.69 1018.96
1016.84 1016.73 1016.68 1016.72 1016.83 1017.02 1017.25 1017.50 1017.74 1017.96 1018.13 1018.27 1018.38 1018.47 1018.54 1018.60 1018.63 1018.62 1018.57 1018.47 1018.34 1018.20 1018.07 1017.97 1017.94 1017.96 1018.03 1018.11 1018.17 1018.16 1018.08 1017.91 1017.68 1017.44 1017.22 1017.08 1017.05 1017.15 1017.36 1017.66 1018.00 1018.35 1018.68
1017.18 1017.05 1017.00 1017.04 1017.16 1017.34 1017.56 1017.79 1018.02 1018.22 1018.41 1018.57 1018.72 1018.84 1018.95 1019.02 1019.04 1019.00 1018.89 1018.72 1018.51 1018.31 1018.14 1018.03 1018.01 1018.07 1018.17 1018.28 1018.34 1018.30 1018.14 1017.87 1017.51 1017.11 1016.76 1016.50 1016.40 1016.46 1016.68 1017.02 1017.44 1017.89 1018.31
1017.57 1017.43 1017.37 1017.41 1017.51 1017.67 1017.85 1018.04 1018.23 1018.40 1018.58 1018.75 1018.92 1019.09 1019.23 1019.33 1019.36 1019.31 1019.16 1018.94 1018.69 1018.44 1018.24 1018.13 1018.13 1018.21 1018.34 1018.45 1018.48 1018.38 1018.12 1017.70 1017.18 1016.61 1016.09 1015.70 1015.49 1015.51 1015.74 1016.15 1016.67 1017.24 1017.80
1017.95 1017.82 1017.77 1017.80 1017.88 1018.00 1018.13 1018.26 1018.39 1018.51 1018.66 1018.82 1019.01 1019.21 1019.39 1019.53 1019.59 1019.54 1019.39 1019.15 1018.87 1018.60 1018.39 1018.28 1018.28 1018.37 1018.50 1018.58 1018.56 1018.37 1017.97 1017.39 1016.67 1015.91 1015.20 1014.66 1014.35 1014.31 1014.55 1015.03 1015.67 1016.39 1017.12
1018.31 1018.20 1018.17 1018.19 1018.25 1018.32 1018.40 1018.46 1018.51 1018.58 1018.68 1018.83 1019.03 1019.25 1019.47 1019.64 1019.74 1019.71 1019.57 1019.34 1019.06 1018.79 1018.57 1018.46 1018.46 1018.55 1018.65 1018.68 1018.58 1018.27 1017.72 1016.96 1016.04 1015.07 1014.17 1013.47 1013.04 1012.95 1013.20 1013.74 1014.50 1015.39 1016.30
1018.59 1018.52 1018.52 1018.55 1018.60 1018.64 1018.66 1018.65 1018.64 1018.65 1018.71 1018.83 1019.02 1019.26 1019.50 1019.71 1019.84 1019.84 1019.73 1019.52 1019.25 1018.98 1018.78 1018.67 1018.66 1018.72 1018.78 1018.75 1018.56 1018.12 1017.42 1016.48 1015.37 1014.21 1013.14 1012.28 1011.74 1011.59 1011.83 1012.43 1013.30 1014.33 1015.41
1018.77 1018.77 1018.81 1018.86 1018.91 1018.94 1018.92 1018.86 1018.80 1018.75 1018.77 1018.86 1019.03 1019.27 1019.53 1019.76 1019.91 1019.95 1019.86 1019.67 1019.43 1019.18 1018.98 1018.87 1018.85 1018.89 1018.90 1018.81 1018.53 1017.99 1017.16 1016.08 1014.82 1013.51 1012.29 1011.31 1010.67 1010.46 1010.68 1011.30 1012.24 1013.37 1014.58
1018.86 1018.92 1019.02 1019.12 1019.19 1019.21 1019.17 1019.09 1018.99 1018.91 1018.88 1018.94 1019.10 1019.32 1019.57 1019.81 1019.98 1020.03 1019.97 1019.81 1019.59 1019.36 1019.18 1019.07 1019.04 1019.05 1019.02 1018.88 1018.54 1017.93 1017.02 1015.86 1014.51 1013.12 1011.81 1010.75 1010.04 1009.77 1009.95 1010.56 1011.52 1012.69 1013.97
1018.86 1019.00 1019.15 1019.30 1019.40 1019.45 1019.42 1019.33 1019.21 1019.11 1019.06 1019.09 1019.22 1019.41 1019.65 1019.87 1020.04 1020.10 1020.06 1019.92 1019.72 1019.51 1019.34 1019.24 1019.20 1019.19 1019.15 1018.98 1018.62 1017.99 1017.07 1015.91 1014.56 1013.15 1011.83 1010.75 1010.00 1009.69 1009.82 1010.38 1011.29 1012.43 1013.70
1018.79 1018.99 1019.21 1019.41 1019.56 1019.64 1019.63 1019.56 1019.45 1019.34 1019.27 1019.28 1019.38 1019.54 1019.75 1019.95 1020.10 1020.16 1020.12 1019.99 1019.82 1019.63 1019.47 1019.38 1019.34 1019.32 1019.28 1019.12 1018.77 1018.18 1017.33 1016.24 1014.97 1013.65 1012.40 1011.35 1010.61 1010.27 1010.34 1010.82 1011.63 1012.67 1013.84
1018.67 1018.94 1019.21 1019.46 1019.65 1019.77 1019.80 1019.76 1019.67 1019.57 1019.50 1019.49 1019.55 1019.68 1019.85 1020.02 1020.14 1020.19 1020.16 1020.04 1019.88 1019.71 1019.57 1019.48 1019.45 1019.44 1019.40 1019.27 1018.99 1018.49 1017.76 1016.82 1015.71 1014.55 1013.43 1012.49 1011.80 1011.46 1011.47 1011.84 1012.51 1013.39 1014.40
1018.54 1018.84 1019.15 1019.44 1019.67 1019.83 1019.90 1019.89 1019.83 1019.75 1019.69 1019.67 1019.71 1019.81 1019.94 1020.07 1020.17 1020.21 1020.18 1020.08 1019.93 1019.78 1019.65 1019.56 1019.53 1019.53 1019.51 1019.43 1019.22 1018.85 1018.29 1017.54 1016.66 1015.71 1014.79 1013.99 1013.40 1013.07 1013.03 1013.29 1013.80 1014.49 1015.30
1018.40 1018.71 1019.04 1019.35 1019.60 1019.79 1019.90 1019.94 1019.91 1019.85 1019.80 1019.78 1019.81 1019.88 1019.98 1020.09 1020.17 1020.21 1020.18 1020.09 1019.97 1019.83 1019.71 1019.63 1019.60 1019.59 1019.59 1019.56 1019.44 1019.19 1018.81 1018.28 1017.64 1016.94 1016.24 1015.62 1015.15 1014.86 1014.79 1014.94 1015.28 1015.77 1016.36
1018.27 1018.57 1018.88 1019.19 1019.45 1019.66 1019.80 1019.87 1019.87 1019.85 1019.81 1019.80 1019.82 1019.87 1019.96 1020.05 1020.13 1020.17 1020.16 1020.10 1020.00 1019.88 1019.78 1019.69 1019.65 1019.64 1019.64 1019.64 1019.59 1019.46 1019.24 1018.92 1018.51 1018.05 1017.58 1017.14 1016.79 1016.56 1016.47 1016.52 1016.72 1017.03 1017.41
1018.16 1018.41 1018.69 1018.97 1019.23 1019.44 1019.60 1019.69 1019.73 1019.73 1019.72 1019.71 1019.73 1019.78 1019.85 1019.94 1020.03 1020.08 1020.10 1020.07 1020.01 1019.92 1019.83 1019.74 1019.69 1019.66 1019.66 1019.67 1019.66 1019.62 1019.53 1019.37 1019.16 1018.91 1018.63 1018.36 1018.12 1017.95 1017.85 1017.84 1017.92 1018.07 1018.30
1018.07 1018.26 1018.49 1018.73 1018.96 1019.17 1019.33 1019.44 1019.50 1019.53 1019.53 1019.53 1019.55 1019.59 1019.67 1019.76 1019.85 1019.93 1019.99 1020.00 1019.98 1019.92 1019.85 1019.77 1019.70 1019.66 1019.64 1019.63 1019.64 1019.65 1019.64 1019.61 1019.54 1019.44 1019.32 1019.18 1019.04 1018.92 1018.82 1018.76 1018.76 1018.80 1018.90
1018.05 1018.16 1018.32 1018.51 1018.71 1018.90 1019.06 1019.17 1019.25 1019.28 1019.29 1019.29 1019.30 1019.34 1019.40 1019.49 1019.59 1019.69 1019.78 1019.84 1019.86 1019.84 1019.80 1019.73 1019.66 1019.60 1019.56 1019.54 1019.54 1019.57 1019.60 1019.64 1019.66 1019.66 1019.64 1019.59 1019.52 1019.43 1019.34 1019.26 1019.20 1019.17 1019.20
1018.11 1018.15 1018.24 1018.37 1018.53 1018.70 1018.85 1018.96 1019.03 1019.06 1019.06 1019.04 1019.03 1019.04 1019.07 1019.14 1019.24 1019.35 1019.46 1019.55 1019.61 1019.64 1019.63 1019.58 1019.52 1019.45 1019.39 1019.36 1019.35 1019.37 1019.42 1019.48 1019.55 1019.61 1019.65 1019.65 1019.62 1019.56 1019.47 1019.37 1019.29 1019.23 1019.22
1018.31 1018.27 1018.30 1018.39 1018.52 1018.66 1018.78 1018.88 1018.94 1018.94 1018.91 1018.85 1018.79 1018.74 1018.72 1018.74 1018.80 1018.90 1019.00 1019.11 1019.20 1019.26 1019.28 1019.27 1019.23 1019.17 1019.11 1019.07 1019.05 1019.06 1019.11 1019.18 1019.27 1019.35 1019.41 1019.44 1019.43 1019.38 1019.30 1019.20 1019.11 1019.05 1019.04
1018.67 1018.58 1018.57 1018.62 1018.72 1018.83 1018.93 1019.00 1019.02 1018.98 1018.89 1018.76 1018.62 1018.49 1018.38 1018.32 1018.31 1018.35 1018.43 1018.52 1018.62 1018.69 1018.74 1018.76 1018.74 1018.71 1018.66 1018.63 1018.61 1018.63 1018.67 1018.74 1018.83 1018.91 1018.98 1019.02 1019.03 1018.99 1018.92 1018.84 1018.77 1018.72 1018.72
1019.21 1019.10 1019.06 1019.09 1019.16 1019.25 1019.32 1019.35 1019.31 1019.21 1019.04 1018.82 1018.57 1018.32 1018.10 1017.93 1017.82 1017.77 1017.78 1017.82 1017.89 1017.96 1018.02 1018.05 1018.06 1018.05 1018.04 1018.02 1018.02 1018.04 1018.09 1018.16 1018.25 1018.34 1018.41 1018.46 1018.48 1018.46 1018.42 1018.36 1018.31 1018.29 1018.31
1019.91 1019.79 1019.74 1019.76 1019.81 1019.87 1019.90 1019.89 1019.79 1019.61 1019.34 1019.02 1018.65 1018.27 1017.92 1017.61 1017.37 1017.21 1017.12 1017.09 1017.10 1017.13 1017.17 1017.21 1017.23 1017.24 1017.24 1017.24 1017.26 1017.29 1017.35 1017.43 1017.52 1017.62 1017.70 1017.76 1017.80 1017.81 1017.79 1017.77 1017.75 1017.77 1017.82
Thickness
5749 5747 5745 5743 5742 5740 5739 5738 5737 5736 5735 5735 5735 5734 5734 5733 5732 5730 5727 5727 5728 5728 5729 5729 5731 5732 5734 5736 5737 5739 5741 5742 5743 5745 5747 5749 5751 5754 5756 5757 5757 5757 5758
5748 5746 5744 5742 5740 5739 5738 5736 5735 5734 5733 5732 5732 5731 5731 5730 5729 5728 5726 5725 5725 5725 5725 5726 5727 5729 5730 5732 5734 5736 5738 5739 5741 5742 5744 5746 5749 5752 5754 5754 5754 5754 5755
5747 5744 5742 5740 5739 5738 5737 5735 5734 5732 5731 5731 5729 5729 5728 5728 5727 5726 5725 5724 5722 5722 5722 5723 5724 5725 5727 5729 5732 5735 5736 5737 5738 5740 5741 5743 5745 5748 5750 5750 5751 5751 5751
5745 5742 5740 5739 5737 5736 5735 5733 5731 5729 5728 5727 5726 5726 5726 5726 5725 5725 5724 5723 5721 5721 5720 5720 5721 5722 5724 5726 5730 5734 5735 5735 5736 5737 5739 5740 5742 5744 5745 5746 5747 5747 5747
5741 5739 5738 5737 5736 5734 5732 5731 5728 5726 5724 5724 5723 5723 5723 5723 5722 5722 5721 5720 5719 5718 5718 5718 5718 5719 5720 5722 5725 5730 5732 5732 5732 5735 5737 5737 5737 5739 5741 5742 5742 5742 5742
5738 5737 5736 5735 5733 5731 5729 5728 5726 5725 5723 5723 5723 5721 5721 5720 5719 5718 5717 5716 5716 5716 5715 5715 5715 5716 5716 5718 5720 5722 5725 5727 5728 5731 5732 5731 5731 5733 5735 5736 5737 5737 5737
5735 5734 5734 5732 5730 5728 5726 5725 5723 5722 5720 5721 5717 5715 5717 5718 5716 5715 5714 5713 5712 5712 5712 5712 5712 5713 5713 5713 5715 5716 5719 5722 5723 5724 5724 5725 5726 5727 5729 5730 5731 5731 5732
5732 5732 5731 5729 5728 5725 5724 5723 5721 5718 5718 5719 5714 5709 5705 5706 5710 5713 5711 5709 5708 5708 5708 5708 5708 5709 5708 5708 5709 5711 5713 5716 5717 5718 5719 5719 5720 5722 5723 5724 5725 5726 5727
5729 5729 5729 5728 5726 5724 5721 5720 5719 5716 5713 5715 5715 5709 5701 5695 5700 5705 5707 5705 5704 5704 5704 5704 5703 5703 5703 5704 5704 5706 5708 5710 5711 5713 5714 5715 5715 5717 5718 5719 5720 5721 5722
5727 5726 5726 5725 5724 5722 5719 5719 5718 5716 5713 5710 5712 5712 5709 5705 5697 5694 5698 5701 5701 5700 5699 5699 5698 5698 5698 5699 5699 5701 5703 5704 5705 5707 5708 5709 5710 5711 5712 5713 5714 5716 5716
5725 5724 5723 5723 5721 5720 5718 5717 5715 5714 5712 5709 5707 5707 5706 5704 5702 5694 5689 5692 5694 5695 5696 5695 5694 5694 5693 5694 5695 5696 5698 5698 5699 5700 5702 5703 5704 5706 5707 5708 5709 5710 5711
5723 5722 5721 5720 5719 5717 5715 5714 5713 5711 5710 5708 5706 5705 5701 5698 5695 5693 5688 5687 5686 5689 5692 5692 5691 5690 5689 5689 5690 5692 5693 5693 5693 5694 5695 5697 5698 5700 5701 5702 5703 5704 5705
5720 5720 5719 5718 5716 5715 5713 5712 5710 5709 5708 5706 5704 5702 5701 5699 5697 5693 5688 5685 5683 5685 5687 5687 5687 5686 5685 5684 5685 5686 5687 5687 5687 5688 5689 5690 5692 5693 5694 5695 5696 5697 5698
5720 5719 5717 5716 5714 5712 5711 5709 5707 5706 5705 5703 5702 5700 5698 5696 5695 5692 5687 5682 5677 5678 5680 5681 5683 5682 5681 5681 5681 5681 5681 5681 5681 5682 5683 5684 5685 5686 5687 5688 5689 5690 5691
5720 5718 5715 5713 5712 5710 5708 5707 5704 5703 5701 5700 5698 5697 5694 5693 5692 5689 5687 5683 5675 5669 5670 5675 5676 5678 5678 5677 5677 5676 5675 5675 5675 5676 5676 5677 5678 5679 5679 5680 5681 5682 5683
5718 5716 5713 5711 5709 5707 5705 5703 5701 5700 5698 5696 5694 5692 5691 5689 5688 5686 5684 5681 5678 5672 5666 5670 5672 5674 5674 5673 5672 5671 5670 5669 5669 5669 5669 5670 5670 5671 5671 5672 5673 5674 5675
5716 5713 5711 5709 5707 5704 5702 5700 5698 5696 5694 5692 5691 5689 5687 5686 5683 5682 5680 5678 5675 5672 5665 5666 5669 5670 5669 5668 5667 5666 5665 5664 5663 5662 5662 5661 5661 5662 5662 5663 5665 5666 5668
5713 5711 5708 5706 5704 5701 5699 5697 5694 5692 5690 5688 5687 5685 5683 5682 5679 5677 5675 5673 5671 5669 5665 5661 5663 5663 5663 5663 5662 5661 5660 5659 5657 5656 5655 5654 5654 5654 5655 5655 5657 5658 5660
5710 5708 5705 5702 5700 5698 5696 5694 5691 5689 5687 5685 5684 5681 5679 5677 5674 5672 5671 5668 5667 5666 5663 5659 5657 5658 5658 5657 5655 5654 5654 5653 5651 5649 5648 5647 5647 5647 5647 5648 5649 5650 5651
5706 5704 5701 5699 5697 5694 5692 5690 5688 5686 5684 5682 5680 5678 5675 5672 5669 5667 5666 5663 5662 5659 5657 5654 5652 5651 5651 5651 5648 5645 5644 5644 5643 5643 5642 5640 5640 5640 5640 5641 5642 5642 5643
5702 5700 5697 5694 5692 5689 5686 5683 5682 5681 5679 5677 5675 5673 5671 5669 5666 5663 5661 5657 5655 5652 5650 5647 5645 5643 5642 5640 5638 5638 5635 5635 5635 5635 5635 5634 5634 5633 5633 5634 5634 5634 5635
5697 5694 5692 5689 5686 5684 5681 5679 5676 5674 5673 5672 5669 5668 5666 5664 5662 5659 5656 5654 5650 5646 5642 5639 5637 5635 5634 5633 5632 5630 5627 5625 5624 5627 5626 5626 5626 5626 5626 5627 5627 5627 5627
5691 5688 5686 5684 5680 5678 5676 5674 5671 5669 5668 5666 5664 5663 5662 5660 5656 5653 5651 5649 5645 5642 5639 5635 5630 5628 5626 5625 5623 5621 5619 5617 5616 5618 5617 5616 5617 5617 5618 5618 5618 5618 5618
5686 5683 5681 5679 5676 5673 5671 5668 5666 5664 5662 5661 5659 5657 5655 5652 5649 5646 5644 5641 5639 5636 5634 5631 5627 5624 5621 5619 5616 5613 5611 5611 5611 5610 5608 5605 5607 5607 5609 5609 5608 5608 5608
5681 5679 5676 5674 5670 5668 5665 5663 5660 5658 5656 5655 5654 5651 5649 5645 5643 5640 5637 5633 5631 5629 5627 5625 5621 5618 5615 5612 5609 5605 5602 5599 5598 5599 5599 5596 5597 5597 5599 5599 5599 5598 5599
5677 5674 5671 5669 5666 5663 5660 5657 5654 5651 5648 5647 5646 5644 5642 5638 5636 5633 5629 5625 5621 5619 5618 5617 5614 5610 5608 5605 5601 5597 5593 5589 5586 5587 5589 5585 5585 5584 5585 5589 5589 5588 5588